Location: Burleson Fire Department Station 2
(32.5391°N, 97.3075°W)
Time: 00:40:25
(UTC+00:00)

NOAA 15 - Pass Details

Date: 18 December 2025
Orbit: 793 x 810 km, 98.5° (Epoch: 20 January)

Event Time Altitude Azimuth Distance (km) Brightness Sun altitude
Rises 02:08:17 0° 203° (SSW) 3,311 8.2 -33.2°
Reaches altitude 10° 02:11:15 10° 220° (SW) 2,383 7.5 -33.9°
Maximum altitude 02:14:58 20° 265° (W) 1,811 7.0 -34.6°
Drops below altitude 10° 02:18:43 10° 311° (NW) 2,387 7.5 -35.4°
Sets 02:21:43 0° 328° (NNW) 3,319 8.1 -36.1°
